Regional Weather Roundup
Issued by NWS

Home | Current Version | Previous Version | Text Only | Print | Product List | Glossary Off
Versions: 1 2 3 4 5 6 7 8 9 10 11 12 13 14 15 16 17 18 19 20 21 22 23 24 25 26 27

000
ASUS45 KSLC 270510
RWRUT

UTAH REGIONAL WEATHER ROUNDUP
NATIONAL WEATHER SERVICE SALT LAKE CITY UT
1100 PM MDT FRI AUG 26 2016

UTZ001>011-023>025-270600-

NORTHERN UTAH

CITY           SKY/WX    TMP DP  RH WIND       PRES   REMARKS
BRIGHAM CITY     N/A     66  29  24 S5        30.02S
HILL AFB       CLEAR     67  31  25 NE6       30.05R
LOGAN          CLEAR     61  35  37 SE9       30.03S
OGDEN          CLEAR     63  34  33 S6        30.02R
PROVO AIRPORT  CLEAR     64  41  42 CALM      30.07R
SALT LAKE CITY CLEAR     71  28  20 SE9       30.01R
VERNAL         CLOUDY    54  52  93 CALM      30.16R
WENDOVER       CLEAR     73  25  16 N8        30.02R
HEBER CITY     CLEAR     54  32  43 CALM      30.11R
WEST JORDAN    CLEAR     66  27  23 SW9       30.05R

$$

UTZ012>022-026-027-270600-

SOUTHERN/CENTRAL UTAH

CITY           SKY/WX    TMP DP  RH WIND       PRES   REMARKS
BLANDING       CLOUDY    59  48  67 W9        30.31R
BRYCE CANYON   MOCLDY    47  43  86 W12       30.33S
CEDAR CITY     MOCLDY    65  38  36 NE16      30.19R
MILFORD        CLOUDY    67  45  45 S13       30.12R
MOAB/CYNLANDS  MOCLDY    70  41  34 SW8       30.09S
PRICE          CLOUDY    59  46  62 NE7       30.17S
ST GEORGE      PTCLDY    77  48  36 E12       30.00R

$$

REGIONAL REPORTS     COLORADO/ARIZONA

CITY           SKY/WX    TMP DP  RH WIND       PRES   REMARKS
CRAIG, CO      CLOUDY    52  44  74 W5        30.24R
GRAND JUNCTION PTCLDY    62  48  60 E13G18    30.17R
RIFLE          LGT RAIN  55  52  89 W7        30.30R
MONTROSE       PTCLDY    63  44  50 NW12      30.23R
CORTEZ         CLOUDY    58  53  84 E6        30.20R
PAGE, AZ       CLOUDY    67  52  58 NE10      30.15R
GRAND CANYON   CLOUDY    57  49  74 VRB5      30.27F
KINGMAN        MOCLDY    75  51  43 SE9       30.02R
FLAGSTAFF      MOCLDY    50  49  96 CALM      30.29S

$$

REGIONAL REPORTS    NEVADA/IDAHO/WYOMING

CITY           SKY/WX    TMP DP  RH WIND       PRES   REMARKS
LAS VEGAS, NV  MOCLDY    85  53  33 SW8       29.87S
ELY            CLOUDY    64  26  23 S7        30.14S
ELKO           CLEAR     63  19  18 N3        30.05R
POCATELLO, ID  CLEAR     59  31  34 S12       30.02S
BURLEY         CLEAR     56  40  55 S8        29.99R
EVANSTON, WY   CLEAR     52  19  27 SW12      30.19R
ROCK SPRINGS   CLOUDY    56  33  42 S5        30.16R

$$




USA.gov is the U.S. government's official web portal to all federal, state and local government web resources and services.